Commit Graph

650 Commits

Author SHA1 Message Date
David Rose 501470169f stdfloat_double 2011-10-10 05:25:10 +00:00
rdb 7db58e6ad1 use packp3d1.8 instead of packp3d 2011-09-29 12:26:01 +00:00
rdb 98f9b13c8a Let's build the 1.8 rtdist against Python 2.7. 2011-09-29 08:10:25 +00:00
David Rose 3456e70b9a remove lock-to-one-cpu 2011-09-28 19:10:01 +00:00
David Rose 8525e325c3 get frameworks from pkg-config as well 2011-09-28 17:13:21 +00:00
David Rose 6d84eed5cc fix missing dependencies 2011-09-28 00:13:34 +00:00
David Rose e0323969a5 maybe we're ready to build with DO_PIPELINE enabled in general 2011-09-12 23:03:05 +00:00
David Rose 089c4780d5 run win-python-x64 if it exists 2011-09-12 22:03:22 +00:00
rdb 6da6402397 oops, put that line in the right place 2011-09-10 08:45:17 +00:00
rdb ddf37dbe28 hopefully this should fix the compile error for p3dcert on osx 2011-09-10 08:37:41 +00:00
rdb 482e7b1e9a oh, I see what was wrong 2011-09-10 08:30:27 +00:00
rdb cc6dbfd8bb fix the rtdist build... hopefully 2011-09-10 08:27:09 +00:00
enn0x bee0fa5a7f Linking against BulletMultiThreaded.lib is not required. 2011-09-06 22:15:29 +00:00
David Rose 5a1c474c31 turns out sys.maxint isn't reliable on windows. Feh. 2011-09-06 20:20:29 +00:00
David Rose e034e375c9 Fixing some more OSX issues. Let's just avoid platform.architecture() as a 32/64 bit test altogether. 2011-09-01 17:23:42 +00:00
rdb cc5c26743c work around a bug in OSX regarding garbled $PATH 2011-09-01 14:19:25 +00:00
rdb f62a4c37cb tabs -> spaces 2011-09-01 08:04:16 +00:00
David Rose 2af9dcb6eb platform.architecture isn't reliable on OSX. 2011-08-31 22:03:18 +00:00
rdb 5e211f3594 this should fix the p3dcert compile error 2011-08-30 10:07:26 +00:00
David Rose 1acf84fcfe build errors 2011-08-30 05:09:49 +00:00
David Rose a5aab34dd9 missing some references 2011-08-28 01:34:04 +00:00
David Rose b50169105a gtk-2 is now optional for plugin build 2011-08-27 03:13:57 +00:00
David Rose 72dbb1dae5 whoops, forgot to assign PLUGIN_VERSION 2011-08-27 02:52:23 +00:00
David Rose db1bde0fa9 this should support XEmbed build 2011-08-27 02:48:11 +00:00
David Rose 14d6123e77 add P3D_PLUGIN_VERSION_STR 2011-08-26 23:37:09 +00:00
David Rose c25d711273 support new plugin changes (untested) 2011-08-25 08:52:04 +00:00
rdb b2cc3f3490 fix 2011-08-25 07:35:07 +00:00
rdb 53425a0262 add Installed-Size field to debian control file 2011-08-24 14:23:11 +00:00
David Rose f0ecfd9f8b build pfm-trans 2011-08-22 17:47:50 +00:00
Mike Christel 48f2a8cab7 Added MAX2012 to MAXVERSIONINFO 2011-08-18 14:02:47 +00:00
enn0x 427eddc4e3 There has been a brace too much in line 3664 of makepanda. 2011-08-10 19:26:44 +00:00
David Rose 25c65cc1b7 fixes to support building C++ code in direct, even without python enabled 2011-08-10 18:36:49 +00:00
David Rose 9d5325e05a replace gnu_getopt with new Panda-licensed implementation 2011-08-03 23:37:43 +00:00
David Rose 657c0ebaf6 HAVE_SPEEDTREE should be added to dtool_config.h 2011-07-27 18:09:29 +00:00
rdb 37047acd75 this should probably fix the rtdist model issues thing 2011-07-25 16:49:19 +00:00
rdb d52509675f shed more light on compile error 2011-07-25 08:06:34 +00:00
rdb 99c71cef31 don't disable pandatool entirely in rtdist build 2011-07-07 08:58:18 +00:00
rdb 5892019088 fix swscale link error, I hope 2011-07-01 18:34:42 +00:00
rdb eb1a1ed508 upgrade ffmpeg stuff 2011-07-01 15:02:14 +00:00
rdb 78e138d9b9 bullet is not part of the runtime, ofc 2011-06-17 07:30:30 +00:00
rdb 8b4bdf4291 should fix the runtime build 2011-06-12 12:58:30 +00:00
rdb 09dd200c58 oops, I'm tired 2011-06-06 19:42:01 +00:00
rdb 54544bfdc8 better fix 2011-06-06 19:39:25 +00:00
rdb e733dbc1ee fix lintian errors 2011-06-06 19:32:10 +00:00
rdb 553b009a24 fix for lib detection 2011-06-03 09:43:49 +00:00
David Rose b71ab5d081 speedtree wants glu32; assume /bigobj for 64-bit archs 2011-06-02 23:25:31 +00:00
rdb 31f9a697b0 opencv thing 2011-05-24 17:10:19 +00:00
rdb 3dbe075ef0 bullet changes 2011-05-18 15:19:08 +00:00
rdb c5cd1fc674 remove HAVE_BULLET dtool_config.h definition, I don't think it's needed 2011-05-18 07:35:41 +00:00
Chris Brunner 5916dc9912 Added a flag to override the forced 32-bit lookup in GetRegistryKey method.
make use of override in the Maya path lookup call to GetRegistryKey, thus allowing finding the 64-bit libraries
2011-05-17 23:14:28 +00:00
Chris Brunner ed5c30c2c4 panda/src/cull needs the /bigobj flag to compile properly in 64-bit 2011-05-17 23:12:12 +00:00
Chris Brunner 53f4dd3b91 Adding egg-list-textures as a binary build target 2011-05-16 21:19:35 +00:00
Chris Brunner 196cdef8a2 support for Maya2012 2011-05-16 21:18:07 +00:00
enn0x 438ab5a1fd Builing on Linux should succed now. 2011-05-14 23:47:34 +00:00
enn0x a7c3f25e23 Added path to bullet header and libs for Linux. 2011-05-14 23:31:45 +00:00
enn0x 10a64db343 Adding bullet physics. 2011-05-14 07:00:02 +00:00
rdb a3aa464834 change basic-shaders-only to #f, change win-origin to -2 -2 2011-05-04 10:48:51 +00:00
rdb 69604365bc oops typo 2011-05-02 12:19:47 +00:00
rdb 996896463a and copy the FreeBSD thing to the head 2011-05-02 10:14:35 +00:00
rdb 717e16e003 mkdir with mode 2011-05-02 10:04:53 +00:00
rdb d590921b90 suggested fix from deflected to add -o devel/panda3d to pkg_create 2011-05-02 06:10:11 +00:00
rdb 8d035dd14d hack fix for the wx compile error on osx 2011-04-30 14:35:06 +00:00
rdb 3e4eb0bf52 correct fltk detection, hopefully 2011-04-26 10:15:44 +00:00
rdb 9feb5958ab use fakeroot when building an RPM or DEB 2011-04-26 10:08:41 +00:00
rdb eccd694b29 remove 64-bits stuff 2011-04-15 08:18:54 +00:00
rdb ca21801bb1 fix fltk-config interpretation 2011-04-14 11:25:23 +00:00
rdb d5dfbe3843 add p3dembedw on windows, hide console window in pdeployed executables by default 2011-04-14 08:50:32 +00:00
rdb ee5c561acc thirdparty dir for arm 2011-03-26 08:52:19 +00:00
rdb b2da92fefb Link fltk statically 2011-03-15 18:34:30 +00:00
rdb 163a73e5bb don't forget the mkdir 2011-03-15 14:12:55 +00:00
rdb a610d7976d fix makepanda --help 2011-03-09 14:41:43 +00:00
rdb e87e3f4581 minor typo 2011-03-09 14:00:21 +00:00
rdb 8c960d0b45 proper plugin location on freebsd 2011-03-09 13:58:20 +00:00
rdb 5b9ad3832c fltk-config fix 2011-03-09 13:16:44 +00:00
rdb 83261415be freebsd npapi thing 2011-03-09 13:02:35 +00:00
rdb 716d7d0c4d fltk requires comctl and winsock on windows 2011-03-09 12:30:38 +00:00
rdb 54c692330a rewrite p3dcert to FLTK 2011-03-09 11:16:20 +00:00
rdb 0e4535acf5 Proper library configuration on FreeBSD (I hope) 2011-03-08 17:01:47 +00:00
rdb eede914ab8 Add missing nvidia-cg-toolkit dependency 2011-03-08 09:15:45 +00:00
rdb e991505623 use -pthread instead of -lpthread, and also respect any or setting 2011-03-02 17:14:29 +00:00
rdb 5f905fcb63 double glgsg copy 2011-03-01 20:09:00 +00:00
rdb 461fd1968c fix misleading comment 2011-02-27 10:10:15 +00:00
rdb 83d690185a OpenAL32.lib 2011-02-26 21:25:57 +00:00
rdb fc0d21cdd3 also read LD_LIBRARY_PATH when searching for libraries 2011-02-21 20:51:50 +00:00
rdb 20f72df4c9 fix bug #676558, also support OpenALSoft to be used on Windows 2011-02-20 17:06:13 +00:00
rdb 2e0329302b <3 to GrizzLyCRO 2011-01-19 21:46:20 +00:00
rdb 00f2a30a2b don't remove .h files from include dir 2011-01-12 15:08:10 +00:00
rdb 17a20c5792 Pick up _ext.I files in linmath 2011-01-03 10:12:16 +00:00
Maxwell J. Koo 40b487d3fa Apply patch from launchpad user mjkoo to add custom mouse cursor support on X11 2010-12-21 12:36:11 +00:00
rdb 0ea72a4712 Remove GLU dependency from Panda3D. Yes. That's right, folks.
And now I shall make myself some coffee and wake up, in that order.
2010-12-19 07:03:49 +00:00
rdb 9bcebb552f Add -a flag to ppackage to allow all .p3d scripts to have a suffix 2010-12-18 22:31:24 +00:00
rdb a6e6303bef Let's disable EGL, GLES and GLES2 on Windows, for now. 2010-12-18 11:32:17 +00:00
rdb 397a7f9736 EGL / OpenGL ES support to makepanda. If this breaks the common Windows builds, I apologise, I'll fix later :-X 2010-12-17 21:54:10 +00:00
David Rose a7404dc839 add objegg rules 2010-12-09 21:19:08 +00:00
rdb 30b2463a05 fix for MAKEPANDA_THIRDPARTY on windows 2010-12-01 21:47:17 +00:00
rdb 5d7cf87d82 committed (admittedly) untested changes for batch files to respect %MAKEPANDA_THIRDPARTY% 2010-12-01 20:38:26 +00:00
rdb 0d12ddf3e9 OSX support for the PhysX SDK 2010-11-17 15:35:40 +00:00
rdb 3d43d0c8ad Allow setting custom MAKEPANDA_THIRDPARTY and MAKEPANDA_SDKS env vars 2010-11-17 12:36:58 +00:00
rdb f05831d24d Improvements. Too lazy to describe them (pay me enough and I'll write a book about these changes) 2010-11-17 12:17:41 +00:00
rdb 04e8fcecda OSX 10.4's PackageMaker doesn't have --scripts, dudes 2010-11-16 22:22:41 +00:00